MAS2PL WMKK-WIII

Flight info

Callsign MAS2PL
Flight time 1h 38m
Altitude 37000
Route MITOS1D MITOS M630 BOBAG P501 ANITO B470 BUNIK
Aircraft B38M/M-SDE1FGHILORVWXY/HB1

Departure

Time 2026-05-07 18:38
Airport Kuala Lumpur International Airport (WMKK)

Arrival

Time 2026-05-07 20:16
Airport Soekarno-Hatta International Airport (WIII)
Time Latitude Longitude Altitude Speed Heading
2026-05-07 18:10 2.75505 101.70791 72 ft 0 kts 146°
2026-05-07 18:27 2.75507 101.70789 99 ft 3 kts 145°
2026-05-07 18:27 2.75521 101.70778 65 ft 4 kts 128°
2026-05-07 18:28 2.75529 101.70748 69 ft 4 kts 63°
2026-05-07 18:28 2.75525 101.70742 69 ft 1 kts 56°
2026-05-07 18:31 2.75528 101.70746 69 ft 4 kts 56°
2026-05-07 18:31 2.75569 101.70794 67 ft 12 kts 30°
2026-05-07 18:31 2.75644 101.70850 67 ft 15 kts 53°
2026-05-07 18:31 2.75706 101.70942 67 ft 17 kts 56°
2026-05-07 18:32 2.75730 101.71046 68 ft 17 kts 124°
2026-05-07 18:32 2.75634 101.71118 69 ft 18 kts 146°
2026-05-07 18:32 2.75526 101.71191 69 ft 19 kts 146°
2026-05-07 18:32 2.75409 101.71268 72 ft 21 kts 146°
2026-05-07 18:33 2.75323 101.71345 67 ft 15 kts 95°
2026-05-07 18:33 2.75375 101.71441 67 ft 17 kts 56°
2026-05-07 18:33 2.75436 101.71549 67 ft 18 kts 89°
2026-05-07 18:33 2.75349 101.71633 70 ft 18 kts 146°
2026-05-07 18:34 2.75249 101.71701 71 ft 17 kts 146°
2026-05-07 18:34 2.75152 101.71766 68 ft 16 kts 146°
2026-05-07 18:34 2.75059 101.71828 69 ft 16 kts 146°
2026-05-07 18:34 2.74970 101.71888 73 ft 16 kts 146°
2026-05-07 18:35 2.74867 101.71956 73 ft 20 kts 146°
2026-05-07 18:35 2.74752 101.72035 71 ft 16 kts 146°
2026-05-07 18:35 2.74680 101.72108 82 ft 15 kts 94°
2026-05-07 18:35 2.74701 101.72159 75 ft 0 kts 57°
2026-05-07 18:36 2.74735 101.72211 70 ft 17 kts 57°
2026-05-07 18:36 2.74836 101.72208 70 ft 8 kts 326°
2026-05-07 18:37 2.74860 101.72192 71 ft 23 kts 326°
2026-05-07 18:37 2.75195 101.71966 72 ft 92 kts 326°
2026-05-07 18:37 2.75899 101.71495 71 ft 149 kts 326°
2026-05-07 18:37 2.76854 101.70853 352 ft 174 kts 326°
2026-05-07 18:38 2.77850 101.70157 991 ft 177 kts 326°
2026-05-07 18:38 2.78902 101.69451 1603 ft 184 kts 327°
2026-05-07 18:38 2.80072 101.68801 2033 ft 207 kts 341°
2026-05-07 18:38 2.81524 101.68328 2266 ft 231 kts 342°
2026-05-07 18:39 2.83100 101.67784 2602 ft 249 kts 341°
2026-05-07 18:39 2.84813 101.67175 2937 ft 270 kts 341°
2026-05-07 18:39 2.86593 101.66536 3741 ft 272 kts 340°
2026-05-07 18:39 2.88371 101.65915 4493 ft 277 kts 345°
2026-05-07 18:40 2.90313 101.65872 5238 ft 281 kts 15°
2026-05-07 18:40 2.92009 101.66804 6047 ft 281 kts 45°
2026-05-07 18:40 2.93111 101.68366 6819 ft 281 kts 64°
2026-05-07 18:40 2.93927 101.70158 7571 ft 283 kts 66°
2026-05-07 18:41 2.94682 101.71985 8303 ft 286 kts 74°
2026-05-07 18:41 2.94792 101.73972 9018 ft 289 kts 102°
2026-05-07 18:41 2.94343 101.75250 9544 ft 290 kts 118°
2026-05-07 18:41 2.92632 101.77319 10385 ft 298 kts 135°
2026-05-07 18:42 2.91067 101.78796 10551 ft 322 kts 136°
2026-05-07 18:42 2.89360 101.80362 10710 ft 342 kts 136°
2026-05-07 18:42 2.87564 101.82009 10978 ft 357 kts 136°
2026-05-07 18:42 2.86348 101.83129 11306 ft 361 kts 136°
2026-05-07 18:43 2.84498 101.84843 11934 ft 363 kts 136°
2026-05-07 18:43 2.82650 101.86566 12583 ft 364 kts 135°
2026-05-07 18:43 2.80791 101.88306 13237 ft 366 kts 135°
2026-05-07 18:43 2.78928 101.90055 13871 ft 369 kts 135°
2026-05-07 18:44 2.77053 101.91816 14447 ft 371 kts 135°
2026-05-07 18:44 2.75164 101.93592 15014 ft 374 kts 135°
2026-05-07 18:44 2.73260 101.95382 15582 ft 377 kts 135°
2026-05-07 18:44 2.71339 101.97188 16141 ft 380 kts 135°
2026-05-07 18:45 2.69398 101.99013 16692 ft 384 kts 135°
2026-05-07 18:45 2.67443 102.00851 17231 ft 387 kts 135°
2026-05-07 18:45 2.65505 102.02672 17752 ft 390 kts 135°
2026-05-07 18:45 2.63492 102.04564 18258 ft 393 kts 135°
2026-05-07 18:46 2.61517 102.06420 18718 ft 395 kts 135°
2026-05-07 18:46 2.59363 102.08140 19119 ft 402 kts 149°
2026-05-07 18:46 2.56728 102.09126 19549 ft 410 kts 167°
2026-05-07 18:46 2.53869 102.09341 20011 ft 415 kts 177°
2026-05-07 18:47 2.50973 102.09334 20426 ft 418 kts 178°
2026-05-07 18:47 2.48054 102.09344 20807 ft 421 kts 177°
2026-05-07 18:47 2.45112 102.09378 21203 ft 424 kts 176°
2026-05-07 18:47 2.42156 102.09431 21607 ft 426 kts 176°
2026-05-07 18:48 2.39180 102.09491 21998 ft 429 kts 176°
2026-05-07 18:48 2.36189 102.09553 22366 ft 432 kts 176°
2026-05-07 18:48 2.33169 102.09615 22734 ft 434 kts 176°
2026-05-07 18:48 2.30142 102.09675 23099 ft 437 kts 176°
2026-05-07 18:49 2.27094 102.09734 23451 ft 439 kts 176°
2026-05-07 18:49 2.24030 102.09793 23734 ft 442 kts 176°
2026-05-07 18:49 2.20952 102.09852 24033 ft 443 kts 176°
2026-05-07 18:49 2.17849 102.09911 24330 ft 445 kts 176°
2026-05-07 18:50 2.14753 102.09970 24619 ft 447 kts 176°
2026-05-07 18:50 2.11669 102.10029 24909 ft 449 kts 176°
2026-05-07 18:50 2.08505 102.10089 25181 ft 450 kts 177°
2026-05-07 18:50 2.05399 102.10149 25454 ft 452 kts 177°
2026-05-07 18:51 2.02253 102.10228 25716 ft 453 kts 173°
2026-05-07 18:51 1.99200 102.10936 25931 ft 451 kts 154°
2026-05-07 18:51 1.96525 102.12534 26226 ft 448 kts 140°
2026-05-07 18:51 1.94358 102.14756 26487 ft 448 kts 125°
2026-05-07 18:52 1.92569 102.17358 26744 ft 449 kts 123°
2026-05-07 18:52 1.90875 102.19944 26946 ft 452 kts 122°
2026-05-07 18:52 1.89160 102.22592 27162 ft 454 kts 122°
2026-05-07 18:52 1.87436 102.25243 27403 ft 456 kts 122°
2026-05-07 18:53 1.85694 102.27897 27643 ft 458 kts 122°
2026-05-07 18:53 1.83928 102.30563 27823 ft 461 kts 123°
2026-05-07 18:53 1.82148 102.33234 28029 ft 463 kts 123°
2026-05-07 18:53 1.80359 102.35909 28266 ft 464 kts 123°
2026-05-07 18:54 1.78556 102.38600 28494 ft 466 kts 123°
2026-05-07 18:54 1.76755 102.41286 28698 ft 467 kts 123°
2026-05-07 18:54 1.74944 102.43988 28929 ft 468 kts 123°
2026-05-07 18:54 1.73127 102.46700 29129 ft 470 kts 123°
2026-05-07 18:55 1.71303 102.49423 29325 ft 472 kts 123°
2026-05-07 18:55 1.69478 102.52149 29513 ft 473 kts 123°
2026-05-07 18:55 1.67640 102.54894 29701 ft 475 kts 123°
2026-05-07 18:55 1.65801 102.57639 29899 ft 476 kts 123°
2026-05-07 18:56 1.63960 102.60388 30131 ft 475 kts 123°
2026-05-07 18:56 1.62124 102.63129 30407 ft 474 kts 123°
2026-05-07 18:56 1.60291 102.65867 30674 ft 473 kts 123°
2026-05-07 18:56 1.58462 102.68597 30908 ft 473 kts 123°
2026-05-07 18:57 1.56637 102.71321 31138 ft 472 kts 123°
2026-05-07 18:57 1.54811 102.74048 31401 ft 472 kts 123°
2026-05-07 18:57 1.52987 102.76771 31676 ft 471 kts 123°
2026-05-07 18:57 1.51161 102.79497 31977 ft 469 kts 123°
2026-05-07 18:58 1.49379 102.82157 32314 ft 467 kts 123°
2026-05-07 18:58 1.47571 102.84856 32590 ft 466 kts 123°
2026-05-07 18:58 1.45762 102.87556 32762 ft 468 kts 123°
2026-05-07 18:58 1.43949 102.90263 32993 ft 469 kts 123°
2026-05-07 18:59 1.42135 102.92971 33311 ft 467 kts 123°
2026-05-07 18:59 1.40337 102.95656 33647 ft 465 kts 123°
2026-05-07 18:59 1.38531 102.98350 33915 ft 465 kts 123°
2026-05-07 18:59 1.36732 103.01040 34138 ft 465 kts 123°
2026-05-07 19:00 1.34938 103.03726 34375 ft 465 kts 123°
2026-05-07 19:00 1.33148 103.06410 34636 ft 463 kts 123°
2026-05-07 19:00 1.31362 103.09089 34902 ft 462 kts 123°
2026-05-07 19:00 1.29580 103.11761 35135 ft 462 kts 123°
2026-05-07 19:01 1.27798 103.14432 35366 ft 462 kts 123°
2026-05-07 19:01 1.26012 103.17109 35591 ft 463 kts 123°
2026-05-07 19:01 1.24229 103.19782 35794 ft 462 kts 123°
2026-05-07 19:01 1.22445 103.22456 36059 ft 461 kts 123°
2026-05-07 19:02 1.20664 103.25125 36325 ft 461 kts 123°
2026-05-07 19:02 1.18888 103.27786 36546 ft 460 kts 123°
2026-05-07 19:02 1.17108 103.30454 36775 ft 460 kts 123°
2026-05-07 19:02 1.15361 103.33072 37001 ft 459 kts 123°
2026-05-07 19:03 1.13576 103.35746 36985 ft 463 kts 123°
2026-05-07 19:03 1.10011 103.41090 36996 ft 460 kts 123°
2026-05-07 19:04 1.06487 103.46371 36998 ft 455 kts 123°
2026-05-07 19:04 1.02759 103.51443 36997 ft 452 kts 133°
2026-05-07 19:05 0.98374 103.55942 37011 ft 455 kts 134°
2026-05-07 19:05 0.93885 103.60487 37014 ft 462 kts 134°
2026-05-07 19:06 0.89391 103.65095 37010 ft 464 kts 134°
2026-05-07 19:06 0.82642 103.72071 37007 ft 465 kts 134°
2026-05-07 19:07 0.78179 103.76685 37005 ft 465 kts 134°
2026-05-07 19:07 0.73688 103.81327 37010 ft 463 kts 133°
2026-05-07 19:08 0.69214 103.85951 37005 ft 462 kts 134°
2026-05-07 19:08 0.64756 103.90558 37008 ft 461 kts 134°
2026-05-07 19:09 0.60302 103.95162 37006 ft 459 kts 134°
2026-05-07 19:09 0.55869 103.99743 37007 ft 458 kts 134°
2026-05-07 19:10 0.51428 104.04323 37009 ft 457 kts 134°
2026-05-07 19:10 0.47010 104.08877 37008 ft 457 kts 134°
2026-05-07 19:11 0.42615 104.13410 37009 ft 457 kts 134°
2026-05-07 19:11 0.38192 104.17973 37010 ft 457 kts 134°
2026-05-07 19:12 0.33769 104.22535 37009 ft 457 kts 134°
2026-05-07 19:12 0.29350 104.27099 37011 ft 457 kts 134°
2026-05-07 19:13 0.24923 104.31674 37010 ft 458 kts 134°
2026-05-07 19:13 0.20496 104.36251 37015 ft 458 kts 134°
2026-05-07 19:14 0.16061 104.40836 37008 ft 459 kts 134°
2026-05-07 19:14 0.11628 104.45419 37008 ft 459 kts 134°
2026-05-07 19:15 0.07187 104.50010 37013 ft 459 kts 134°
2026-05-07 19:15 0.02747 104.54599 37007 ft 459 kts 134°
2026-05-07 19:16 -0.01691 104.59188 37009 ft 460 kts 134°
2026-05-07 19:16 -0.06137 104.63783 37013 ft 460 kts 134°
2026-05-07 19:17 -0.10581 104.68377 37009 ft 460 kts 134°
2026-05-07 19:17 -0.15034 104.72982 37009 ft 460 kts 134°
2026-05-07 19:18 -0.19481 104.77579 37012 ft 460 kts 134°
2026-05-07 19:18 -0.23928 104.82178 37010 ft 460 kts 134°
2026-05-07 19:19 -0.28398 104.86704 37010 ft 461 kts 138°
2026-05-07 19:19 -0.33597 104.90437 37011 ft 461 kts 146°
2026-05-07 19:20 -0.38946 104.93966 37011 ft 461 kts 145°
2026-05-07 19:20 -0.44294 104.97523 37015 ft 462 kts 145°
2026-05-07 19:21 -0.49625 105.01111 37014 ft 463 kts 144°
2026-05-07 19:21 -0.54963 105.04722 37014 ft 464 kts 144°
2026-05-07 19:22 -0.60316 105.08346 36988 ft 465 kts 145°
2026-05-07 19:22 -0.63008 105.10168 36869 ft 467 kts 145°
2026-05-07 19:22 -0.65657 105.11960 36835 ft 465 kts 145°
2026-05-07 19:23 -0.71009 105.15580 36835 ft 464 kts 144°
2026-05-07 19:23 -0.76354 105.19196 36838 ft 465 kts 144°
2026-05-07 19:24 -0.81736 105.22837 36837 ft 467 kts 145°
2026-05-07 19:24 -0.87131 105.26486 36838 ft 468 kts 145°
2026-05-07 19:25 -0.92533 105.30141 36835 ft 469 kts 145°
2026-05-07 19:25 -0.97938 105.33797 36841 ft 469 kts 145°
2026-05-07 19:26 -1.03347 105.37457 36834 ft 469 kts 145°
2026-05-07 19:26 -1.08756 105.41116 36837 ft 469 kts 145°
2026-05-07 19:27 -1.14120 105.44745 36829 ft 469 kts 144°
2026-05-07 19:27 -1.19518 105.48398 36831 ft 468 kts 144°
2026-05-07 19:28 -1.24902 105.52041 36835 ft 468 kts 144°
2026-05-07 19:28 -1.30290 105.55688 36834 ft 467 kts 144°
2026-05-07 19:29 -1.35672 105.59330 36830 ft 467 kts 144°
2026-05-07 19:29 -1.41055 105.62973 36836 ft 467 kts 144°
2026-05-07 19:30 -1.45519 105.65994 36832 ft 467 kts 144°
2026-05-07 19:30 -1.50898 105.69635 36846 ft 467 kts 144°
2026-05-07 19:31 -1.57157 105.73872 36837 ft 467 kts 144°
2026-05-07 19:31 -1.62531 105.77510 36842 ft 467 kts 144°
2026-05-07 19:32 -1.67045 105.80566 36835 ft 467 kts 144°
2026-05-07 19:32 -1.72390 105.84185 36837 ft 467 kts 144°
2026-05-07 19:33 -1.77769 105.87827 36836 ft 467 kts 144°
2026-05-07 19:33 -1.83157 105.91476 36841 ft 467 kts 144°
2026-05-07 19:34 -1.88544 105.95124 36837 ft 468 kts 144°
2026-05-07 19:34 -1.93934 105.98774 36837 ft 468 kts 144°
2026-05-07 19:35 -1.99319 106.02422 36835 ft 468 kts 144°
2026-05-07 19:35 -2.04713 106.06076 36837 ft 468 kts 144°
2026-05-07 19:36 -2.10097 106.09725 36836 ft 468 kts 144°
2026-05-07 19:36 -2.15595 106.13227 36823 ft 469 kts 153°
2026-05-07 19:37 -2.21757 106.15213 36839 ft 471 kts 169°
2026-05-07 19:37 -2.28223 106.16272 36834 ft 471 kts 170°
2026-05-07 19:38 -2.34704 106.17308 36834 ft 472 kts 170°
2026-05-07 19:38 -2.41174 106.18388 36837 ft 472 kts 169°
2026-05-07 19:39 -2.47662 106.19497 36834 ft 472 kts 169°
2026-05-07 19:39 -2.54139 106.20610 36837 ft 473 kts 169°
2026-05-07 19:40 -2.60633 106.21724 36837 ft 473 kts 169°
2026-05-07 19:40 -2.67084 106.22830 36833 ft 473 kts 169°
2026-05-07 19:41 -2.73573 106.23942 36831 ft 473 kts 169°
2026-05-07 19:41 -2.80071 106.25056 36830 ft 473 kts 169°
2026-05-07 19:42 -2.86565 106.26170 36829 ft 473 kts 169°
2026-05-07 19:42 -2.93051 106.27282 36830 ft 473 kts 169°
2026-05-07 19:43 -2.99539 106.28394 36829 ft 473 kts 169°
2026-05-07 19:43 -3.06036 106.29509 36832 ft 473 kts 169°
2026-05-07 19:44 -3.12512 106.30619 36834 ft 473 kts 169°
2026-05-07 19:44 -3.19002 106.31733 36831 ft 473 kts 169°
2026-05-07 19:45 -3.25449 106.32839 36834 ft 473 kts 169°
2026-05-07 19:45 -3.31932 106.33951 36833 ft 473 kts 169°
2026-05-07 19:46 -3.38417 106.35064 36830 ft 473 kts 169°
2026-05-07 19:46 -3.44895 106.36176 36832 ft 473 kts 169°
2026-05-07 19:47 -3.51382 106.37290 36832 ft 473 kts 169°
2026-05-07 19:47 -3.57882 106.38406 36829 ft 473 kts 169°
2026-05-07 19:48 -3.64369 106.39528 36832 ft 474 kts 168°
2026-05-07 19:48 -3.70856 106.40729 36831 ft 474 kts 168°
2026-05-07 19:49 -3.77335 106.41955 36829 ft 474 kts 168°
2026-05-07 19:49 -3.83824 106.43174 36833 ft 474 kts 168°
2026-05-07 19:50 -3.90325 106.44389 36828 ft 474 kts 168°
2026-05-07 19:50 -3.96811 106.45599 36834 ft 474 kts 168°
2026-05-07 19:51 -4.03305 106.46810 36831 ft 474 kts 168°
2026-05-07 19:51 -4.06563 106.47418 36355 ft 481 kts 168°
2026-05-07 19:51 -4.09849 106.48032 35824 ft 478 kts 168°
2026-05-07 19:52 -4.13109 106.48640 35176 ft 479 kts 168°
2026-05-07 19:52 -4.16398 106.49254 34504 ft 481 kts 168°
2026-05-07 19:52 -4.19703 106.49872 33796 ft 484 kts 168°
2026-05-07 19:52 -4.23020 106.50491 32996 ft 486 kts 168°
2026-05-07 19:53 -4.26347 106.51112 32253 ft 487 kts 168°
2026-05-07 19:53 -4.29639 106.51727 31487 ft 488 kts 168°
2026-05-07 19:53 -4.32980 106.52351 30919 ft 485 kts 168°
2026-05-07 19:53 -4.36276 106.52966 30335 ft 482 kts 168°
2026-05-07 19:54 -4.39571 106.53581 29783 ft 479 kts 168°
2026-05-07 19:54 -4.42830 106.54189 29164 ft 474 kts 168°
2026-05-07 19:54 -4.46063 106.54793 28603 ft 469 kts 168°
2026-05-07 19:54 -4.49249 106.55388 28058 ft 464 kts 168°
2026-05-07 19:55 -4.52411 106.55979 27509 ft 460 kts 168°
2026-05-07 19:55 -4.55542 106.56564 26975 ft 455 kts 168°
2026-05-07 19:55 -4.58638 106.57143 26447 ft 451 kts 168°
2026-05-07 19:55 -4.61706 106.57717 25923 ft 447 kts 168°
2026-05-07 19:56 -4.64760 106.58288 25378 ft 444 kts 168°
2026-05-07 19:56 -4.67785 106.58854 24856 ft 441 kts 168°
2026-05-07 19:56 -4.70798 106.59418 24324 ft 439 kts 168°
2026-05-07 19:56 -4.73788 106.59977 23799 ft 436 kts 168°
2026-05-07 19:57 -4.76768 106.60535 23239 ft 434 kts 168°
2026-05-07 19:57 -4.79728 106.61088 22735 ft 429 kts 168°
2026-05-07 19:57 -4.82607 106.61626 22586 ft 416 kts 168°
2026-05-07 19:57 -4.85409 106.62152 22395 ft 404 kts 167°
2026-05-07 19:58 -4.88076 106.62958 22014 ft 396 kts 155°
2026-05-07 19:58 -4.90561 106.64092 21637 ft 391 kts 153°
2026-05-07 19:58 -4.93005 106.65276 21203 ft 388 kts 152°
2026-05-07 19:58 -4.95387 106.66430 20785 ft 385 kts 153°
2026-05-07 19:59 -4.97807 106.67583 20368 ft 383 kts 153°
2026-05-07 19:59 -5.00212 106.68708 19955 ft 380 kts 153°
2026-05-07 19:59 -5.02609 106.69817 19527 ft 378 kts 154°
2026-05-07 19:59 -5.04995 106.70914 19110 ft 376 kts 154°
2026-05-07 20:00 -5.07364 106.72001 18687 ft 374 kts 154°
2026-05-07 20:00 -5.09729 106.73085 18271 ft 372 kts 153°
2026-05-07 20:00 -5.12087 106.74167 17805 ft 371 kts 154°
2026-05-07 20:00 -5.14424 106.75239 17370 ft 368 kts 154°
2026-05-07 20:01 -5.16739 106.76300 16951 ft 364 kts 154°
2026-05-07 20:01 -5.19039 106.77351 16513 ft 362 kts 154°
2026-05-07 20:01 -5.21329 106.78388 16083 ft 360 kts 154°
2026-05-07 20:01 -5.23598 106.79414 15659 ft 358 kts 154°
2026-05-07 20:02 -5.25856 106.80434 15244 ft 356 kts 154°
2026-05-07 20:02 -5.28111 106.81454 14818 ft 354 kts 154°
2026-05-07 20:02 -5.30349 106.82468 14388 ft 353 kts 154°
2026-05-07 20:02 -5.32588 106.83482 13967 ft 351 kts 154°
2026-05-07 20:03 -5.34780 106.84475 13523 ft 350 kts 154°
2026-05-07 20:03 -5.37027 106.85493 13074 ft 348 kts 154°
2026-05-07 20:03 -5.39197 106.86477 12653 ft 346 kts 154°
2026-05-07 20:03 -5.41410 106.87480 12218 ft 343 kts 154°
2026-05-07 20:04 -5.43546 106.88448 11827 ft 340 kts 154°
2026-05-07 20:04 -5.45697 106.89422 11418 ft 338 kts 154°
2026-05-07 20:04 -5.47927 106.90167 10995 ft 339 kts 172°
2026-05-07 20:04 -5.50274 106.90201 10633 ft 337 kts 179°
2026-05-07 20:05 -5.52611 106.90144 10206 ft 336 kts 180°
2026-05-07 20:05 -5.54927 106.90086 9960 ft 329 kts 179°
2026-05-07 20:05 -5.57163 106.90036 9960 ft 313 kts 179°
2026-05-07 20:05 -5.59293 106.89995 9913 ft 299 kts 179°
2026-05-07 20:06 -5.61321 106.89960 9780 ft 284 kts 179°
2026-05-07 20:06 -5.63271 106.89930 9395 ft 279 kts 178°
2026-05-07 20:06 -5.65208 106.89902 8908 ft 278 kts 179°
2026-05-07 20:06 -5.67137 106.89874 8440 ft 277 kts 179°
2026-05-07 20:07 -5.69057 106.89846 8021 ft 274 kts 178°
2026-05-07 20:07 -5.70956 106.89818 7594 ft 272 kts 178°
2026-05-07 20:07 -5.72847 106.89787 7165 ft 270 kts 178°
2026-05-07 20:07 -5.74719 106.89748 6746 ft 269 kts 179°
2026-05-07 20:08 -5.76581 106.89707 6346 ft 266 kts 178°
2026-05-07 20:08 -5.78425 106.89668 5946 ft 264 kts 178°
2026-05-07 20:08 -5.80258 106.89628 5632 ft 264 kts 178°
2026-05-07 20:08 -5.82098 106.89590 5324 ft 265 kts 178°
2026-05-07 20:09 -5.83946 106.89551 5015 ft 265 kts 178°
2026-05-07 20:09 -5.85793 106.89512 4711 ft 266 kts 179°
2026-05-07 20:09 -5.87637 106.89473 4400 ft 263 kts 179°
2026-05-07 20:10 -5.91186 106.89397 3795 ft 250 kts 179°
2026-05-07 20:10 -5.92923 106.89360 3504 ft 244 kts 179°
2026-05-07 20:10 -5.94583 106.89325 3244 ft 238 kts 179°
2026-05-07 20:10 -5.96190 106.89084 3027 ft 232 kts 204°
2026-05-07 20:11 -5.97476 106.88170 3026 ft 226 kts 217°
2026-05-07 20:11 -5.98683 106.87171 3015 ft 225 kts 217°
2026-05-07 20:11 -5.99885 106.86178 2999 ft 222 kts 217°
2026-05-07 20:11 -6.01077 106.85194 2989 ft 221 kts 217°
2026-05-07 20:12 -6.02254 106.84223 2834 ft 218 kts 217°
2026-05-07 20:12 -6.03438 106.83248 2573 ft 221 kts 217°
2026-05-07 20:12 -6.04614 106.82257 2331 ft 221 kts 223°
2026-05-07 20:12 -6.05371 106.80916 2085 ft 224 kts 252°
2026-05-07 20:13 -6.05861 106.79469 2064 ft 213 kts 245°
2026-05-07 20:13 -6.06426 106.78159 2006 ft 195 kts 245°
2026-05-07 20:13 -6.06918 106.76953 1983 ft 180 kts 246°
2026-05-07 20:13 -6.07372 106.75811 1801 ft 172 kts 246°
2026-05-07 20:14 -6.07809 106.74706 1603 ft 169 kts 246°
2026-05-07 20:14 -6.08238 106.73623 1386 ft 167 kts 246°
2026-05-07 20:14 -6.08655 106.72567 1153 ft 157 kts 246°
2026-05-07 20:14 -6.09054 106.71559 968 ft 157 kts 245°
2026-05-07 20:15 -6.09451 106.70558 785 ft 151 kts 246°
2026-05-07 20:15 -6.09828 106.69601 611 ft 147 kts 248°
2026-05-07 20:15 -6.10185 106.68661 432 ft 143 kts 246°
2026-05-07 20:15 -6.10551 106.67751 262 ft 138 kts 246°
2026-05-07 20:16 -6.10907 106.66866 82 ft 134 kts 248°
2026-05-07 20:16 -6.11237 106.66040 25 ft 115 kts 248°
2026-05-07 20:16 -6.11494 106.65402 26 ft 82 kts 248°
2026-05-07 20:16 -6.11649 106.65021 30 ft 41 kts 248°
2026-05-07 20:17 -6.11751 106.64780 32 ft 33 kts 237°
2026-05-07 20:17 -6.11860 106.64670 31 ft 11 kts 215°
2026-05-07 20:17 -6.11878 106.64657 31 ft 0 kts 214°
2026-05-07 20:18 -6.11889 106.64650 31 ft 5 kts 213°
2026-05-07 20:18 -6.11970 106.64649 31 ft 18 kts 159°
2026-05-07 20:19 -6.12103 106.64705 30 ft 21 kts 156°
2026-05-07 20:19 -6.12196 106.64769 30 ft 14 kts 97°
2026-05-07 20:19 -6.12183 106.64860 30 ft 11 kts 116°
2026-05-07 20:19 -6.12237 106.64908 29 ft 8 kts 144°
2026-05-07 20:20 -6.12242 106.64912 29 ft 0 kts 144°